{"data":{"norad_id":62144,"epoch":"2026-09-21T01:33:37.767744Z","epoch_age_seconds":133467,"freshness":"FRESH","line1":"1 62144U 24224F   26264.06502046  .00009032  00000+0  33720-3 0  9995","line2":"2 62144  43.0019 142.2085 0001354 276.1527  83.9170 15.27592530102270","mean_motion":15.2759253,"eccentricity":0.0001354,"inclination_deg":43.0019,"raan_deg":142.2085,"arg_perigee_deg":276.1527,"mean_anomaly_deg":83.917,"bstar":0.0003372,"rev_number":10227,"period_min":94.265975495442,"perigee_km":482.08257745115,"apogee_km":483.94057648579,"semimajor_km":6861.1485769685,"source":"CELESTRAK","updated_at":"2026-09-22T09:00:49.530004Z"}}